Tracking 19794 objects as of 21-Jul-2019
HD Live streaming from Space Station
objects crossing your sky now

GARUDA 1

Track GARUDA 1 now!
GARUDA 1 is classified as:


NORAD ID: 26089
Int'l Code: 2000-011A
Perigee: 35,883.0 km
Apogee: 35,900.6 km
Inclination: 3.5 °
Period: 1,441.1 minutes
Semi major axis: 42262 km
RCS: 16.0243 m2 (large)
Launch date: February 12, 2000
Source: Indonesia (INDO)
Launch site: TYURATAM MISSILE AND SPACE COMPLEX (TTMTR)

L-band; mobile telephone communications.
aabbcc
Your satellite tracking list
Your tracking list is empty




NASA's NSSDC Master Catalog

Two Line Element Set (TLE):
1 26089U 00011A   19200.85671546 -.00000256 +00000-0 +00000-0 0  9995
2 26089 003.4716 096.7952 0002075 345.3477 315.5607 00.99923023016431
Source of the keplerian elements: AFSPC